"Pseudo-MPEC" for NAOCYLA

Created 2026 Jun 8 9:35:03 UT using Find_Orb

Click here for an explanation of pseudo-MPECs

 
 Astrometry: 
     NAOCYLA* C2026 05 27.73190316 05 06.707-19 43 30.32   ~5T95 20.54GWNEOCPN57
     NAOCYLA  C2026 05 27.76542116 05 10.000-19 43 53.05   ~5T95 20.44GWNEOCPN57
     NAOCYLA  C2026 05 27.79894016 05 13.276-19 44 12.58   ~5T95 20.45GWNEOCPN57
     NAOCYLA  C2026 05 27.86597816 05 20.030-19 44 52.55   ~5T95 20.44GWNEOCPN57

Station data:
(N57) YLT, NAOC  (N32.306018 E80.046000)  China.

Orbital elements:  NAOCYLA
   Perihelion 2026 Apr 20.555167 +/- 41 TT = 13:19:26.4 (JD 2461151.055167)
Epoch 2026 May 28.0 TT = JDT 2461188.5   Earth MOID: 0.1146   Ma: 0.0312
M  14.018084052 +/- 14              (J2000 ecliptic)             AutoNEOCP
n   0.374366313 +/- 0.225           Peri.  130.128781 +/- 60
a   1.906652472 +/- 0.763           Node    80.103920 +/- 35
e   0.41292083 +/- 0.21             Incl.    0.636002 +/- 0.45
P   2.633/961.607d         H 23.93  G  0.15   U 11.7  SR
q 1.119355937 +/- 0.176    Q 2.693949007 +/- 25
From 4 observations 2026 May 27 (3.2 hr); mean residual 0".41
Residuals in arcseconds: 
260527 N57  .22+  .43+    260527 N57  .42-  .40+    
260527 N57  .01-  .84-    260527 N57  .22+  .01+    

Ephemerides (geocentric):
Date (UTC) HH   RA             Dec           delta  r     elong  mag " sig PA
---- --------  ------------   ------------  ------ ------ -----  --- --------
2026 06 08 10  16 24 35.357   -21 21 28.90  .21355 1.2261 170.6 21.6  36d 103
2026 06 08 11  16 24 38.906   -21 21 45.58  .21373 1.2263 170.6 21.6  37d 103
2026 06 08 12  16 24 42.452   -21 22 02.23  .21390 1.2265 170.5 21.6  37d 103
2026 06 08 13  16 24 45.994   -21 22 18.86  .21408 1.2266 170.5 21.6  37d 103
2026 06 08 14  16 24 49.532   -21 22 35.46  .21426 1.2268 170.5 21.6  37d 103
2026 06 08 15  16 24 53.068   -21 22 52.04  .21443 1.2270 170.5 21.6  37d 103
2026 06 08 16  16 24 56.599   -21 23 08.59  .21461 1.2271 170.4 21.6  37d 103
2026 06 08 17  16 25 00.128   -21 23 25.11  .21479 1.2273 170.4 21.6  37d 103
2026 06 08 18  16 25 03.653   -21 23 41.61  .21497 1.2275 170.4 21.6  37d 103
2026 06 08 19  16 25 07.175   -21 23 58.08  .21515 1.2276 170.4 21.6  37d 103
2026 06 08 20  16 25 10.693   -21 24 14.53  .21532 1.2278 170.3 21.6  37d 103
2026 06 08 21  16 25 14.208   -21 24 30.95  .21550 1.2280 170.3 21.6  37d 103
2026 06 08 22  16 25 17.720   -21 24 47.35  .21568 1.2281 170.3 21.6  37d 103
2026 06 08 23  16 25 21.228   -21 25 03.71  .21586 1.2283 170.3 21.6  37d 103
2026 06 09 00  16 25 24.733   -21 25 20.06  .21604 1.2285 170.2 21.6  37d 103
2026 06 09 01  16 25 28.235   -21 25 36.38  .21622 1.2287 170.2 21.6  37d 103
2026 06 09 02  16 25 31.733   -21 25 52.67  .21640 1.2288 170.2 21.6  37d 103
2026 06 09 03  16 25 35.229   -21 26 08.94  .21658 1.2290 170.2 21.6  37d 103
2026 06 09 04  16 25 38.720   -21 26 25.18  .21676 1.2292 170.1 21.6  37d 103
2026 06 09 05  16 25 42.209   -21 26 41.40  .21694 1.2293 170.1 21.6  38d 103
2026 06 09 06  16 25 45.695   -21 26 57.59  .21711 1.2295 170.1 21.6  38d 103
2026 06 09 07  16 25 49.177   -21 27 13.76  .21729 1.2297 170.1 21.6  38d 103
2026 06 09 08  16 25 52.656   -21 27 29.90  .21748 1.2298 170.0 21.6  38d 103
2026 06 09 09  16 25 56.131   -21 27 46.01  .21766 1.2300 170.0 21.6  38d 103
2026 06 09 10  16 25 59.604   -21 28 02.10  .21784 1.2302 170.0 21.6  38d 103
2026 06 09 11  16 26 03.073   -21 28 18.17  .21802 1.2304 170.0 21.7  38d 103
2026 06 09 12  16 26 06.539   -21 28 34.21  .21820 1.2305 169.9 21.7  38d 103
2026 06 09 13  16 26 10.002   -21 28 50.23  .21838 1.2307 169.9 21.7  38d 103
2026 06 09 14  16 26 13.462   -21 29 06.22  .21856 1.2309 169.9 21.7  38d 103
2026 06 09 15  16 26 16.919   -21 29 22.19  .21874 1.2310 169.9 21.7  38d 103
2026 06 09 16  16 26 20.373   -21 29 38.13  .21892 1.2312 169.8 21.7  38d 103
2026 06 09 17  16 26 23.823   -21 29 54.05  .21910 1.2314 169.8 21.7  38d 103
2026 06 09 18  16 26 27.270   -21 30 09.94  .21929 1.2315 169.8 21.7  38d 103
2026 06 09 19  16 26 30.714   -21 30 25.81  .21947 1.2317 169.8 21.7  38d 103
2026 06 09 20  16 26 34.156   -21 30 41.65  .21965 1.2319 169.7 21.7  38d 103
2026 06 09 21  16 26 37.594   -21 30 57.47  .21983 1.2321 169.7 21.7  38d 103
2026 06 09 22  16 26 41.029   -21 31 13.26  .22002 1.2322 169.7 21.7  38d 103
2026 06 09 23  16 26 44.460   -21 31 29.03  .22020 1.2324 169.6 21.7  38d 103
2026 06 10 00  16 26 47.889   -21 31 44.78  .22038 1.2326 169.6 21.7  38d 103
2026 06 10 01  16 26 51.315   -21 32 00.50  .22056 1.2327 169.6 21.7  38d 103
2026 06 10 02  16 26 54.738   -21 32 16.20  .22075 1.2329 169.6 21.7  39d 103
2026 06 10 03  16 26 58.157   -21 32 31.87  .22093 1.2331 169.5 21.7  39d 103
2026 06 10 04  16 27 01.574   -21 32 47.52  .22111 1.2333 169.5 21.7  39d 103
2026 06 10 05  16 27 04.988   -21 33 03.15  .22130 1.2334 169.5 21.7  39d 103
2026 06 10 06  16 27 08.399   -21 33 18.75  .22148 1.2336 169.5 21.7  39d 103
2026 06 10 07  16 27 11.806   -21 33 34.32  .22167 1.2338 169.4 21.7  39d 103
2026 06 10 08  16 27 15.211   -21 33 49.88  .22185 1.2339 169.4 21.7  39d 103
2026 06 10 09  16 27 18.613   -21 34 05.41  .22204 1.2341 169.4 21.7  39d 103